When you browse on this site, cookies collect data to enhance your experience and personalize the content and advertising you see.
Visit our Privacy Policy to learn more. By continuing to use the site, you agree to this use of cookies and data.
  • In United Kingdom
  • List of Countries
  • For 7 days
  • Water Temperature
  • Weather Map
  • Weather Widgets
  • user-avatar
    Login

    Hourly Weather Djibouti

    Today, 21 November, Thursday

    Time Temperature Precipitation Wind Pressure Humidity
    00:00 +29°C° 0 mm 3 mps 756 mmHg 84%
    01:00 +29°C° 0.1 mm 3 mps 755 mmHg 84%
    02:00 +29°C° 0.1 mm 3 mps 755 mmHg 85%
    03:00 +29°C° 0.1 mm 3 mps 755 mmHg 85%
    04:00 +29°C° 0.1 mm 3 mps 755 mmHg 85%
    05:00 +29°C° 0.1 mm 4 mps 756 mmHg 85%
    06:00 +29°C° 0.1 mm 4 mps 756 mmHg 85%
    07:00 +30°C° 0.2 mm 5 mps 756 mmHg 80%
    08:00 +32°C° 0.2 mm 5 mps 757 mmHg 75%
    09:00 +33°C° 0.2 mm 6 mps 757 mmHg 70%
    10:00 +33°C° 0.5 mm 6 mps 756 mmHg 68%
    11:00 +33°C° 0.5 mm 7 mps 756 mmHg 67%
    12:00 +33°C° 0.5 mm 7 mps 755 mmHg 66%
    13:00 +33°C° 0.2 mm 7 mps 755 mmHg 66%
    14:00 +33°C° 0.2 mm 6 mps 754 mmHg 65%
    15:00 +33°C° 0.2 mm 6 mps 754 mmHg 65%
    16:00 +32°C° 0.2 mm 6 mps 754 mmHg 70%
    17:00 +32°C° 0.2 mm 5 mps 755 mmHg 74%
    18:00 +30°C° 0.2 mm 5 mps 755 mmHg 79%
    19:00 +30°C° 0.3 mm 5 mps 755 mmHg 80%
    20:00 +30°C° 0.3 mm 5 mps 756 mmHg 81%
    21:00 +29°C° 0.3 mm 5 mps 756 mmHg 82%
    22:00 +29°C° 0.4 mm 5 mps 756 mmHg 83%
    23:00 +29°C° 0.4 mm 5 mps 756 mmHg 84%

    Tomorrow, 22 November, Friday

    Time Temperature Precipitation Wind Pressure Humidity
    00:00 +29°C° 0.4 mm 6 mps 756 mmHg 85%
    01:00 +29°C° 0.3 mm 6 mps 756 mmHg 84%
    02:00 +29°C° 0.3 mm 6 mps 756 mmHg 84%
    03:00 +29°C° 0.3 mm 6 mps 755 mmHg 84%
    04:00 +29°C° 0.2 mm 6 mps 756 mmHg 83%
    05:00 +29°C° 0.2 mm 7 mps 757 mmHg 82%
    06:00 +29°C° 0.2 mm 7 mps 757 mmHg 81%
    07:00 +29°C° 0.9 mm 8 mps 757 mmHg 78%
    08:00 +31°C° 0.9 mm 8 mps 758 mmHg 75%
    09:00 +31°C° 0.9 mm 8 mps 758 mmHg 72%
    10:00 +31°C° 1.9 mm 8 mps 758 mmHg 72%
    11:00 +31°C° 1.9 mm 9 mps 757 mmHg 73%
    12:00 +31°C° 1.9 mm 9 mps 757 mmHg 73%
    13:00 +31°C° 2.2 mm 9 mps 757 mmHg 76%
    14:00 +29°C° 2.2 mm 9 mps 756 mmHg 80%
    15:00 +28°C° 2.2 mm 8 mps 756 mmHg 83%
    16:00 +28°C° 2.1 mm 8 mps 756 mmHg 84%
    17:00 +28°C° 2.1 mm 8 mps 756 mmHg 84%
    18:00 +28°C° 2.1 mm 8 mps 756 mmHg 85%
    19:00 +28°C° 2.7 mm 8 mps 757 mmHg 86%
    20:00 +28°C° 2.7 mm 7 mps 757 mmHg 86%
    21:00 +28°C° 2.7 mm 7 mps 758 mmHg 87%
    22:00 +28°C° 2.6 mm 7 mps 758 mmHg 86%
    23:00 +28°C° 2.6 mm 6 mps 758 mmHg 85%

    Day after tomorrow, 23 November, Saturday

    Time Temperature Precipitation Wind Pressure Humidity
    00:00 +28°C° 2.6 mm 6 mps 757 mmHg 83%
    01:00 +28°C° 2.6 mm 6 mps 757 mmHg 85%
    02:00 +28°C° 2.6 mm 6 mps 757 mmHg 86%
    03:00 +28°C° 2.6 mm 6 mps 757 mmHg 88%
    04:00 +27°C° 2.7 mm 6 mps 757 mmHg 88%
    05:00 +27°C° 2.7 mm 6 mps 757 mmHg 89%
    06:00 +27°C° 2.7 mm 6 mps 758 mmHg 90%
    07:00 +27°C° 2.5 mm 6 mps 758 mmHg 89%
    08:00 +27°C° 2.5 mm 6 mps 759 mmHg 89%
    09:00 +27°C° 2.5 mm 6 mps 759 mmHg 89%
    10:00 +28°C° 2.3 mm 6 mps 758 mmHg 86%
    11:00 +28°C° 2.3 mm 6 mps 758 mmHg 83%
    12:00 +29°C° 2.3 mm 6 mps 757 mmHg 80%
    13:00 +29°C° 0.9 mm 7 mps 757 mmHg 79%
    14:00 +29°C° 0.9 mm 7 mps 756 mmHg 77%
    15:00 +29°C° 0.9 mm 7 mps 756 mmHg 76%
    16:00 +29°C° 0.1 mm 7 mps 756 mmHg 77%
    17:00 +29°C° 0.1 mm 6 mps 756 mmHg 78%
    18:00 +29°C° 0.1 mm 6 mps 756 mmHg 80%
    19:00 +29°C° 0 mm 6 mps 757 mmHg 80%
    20:00 +28°C° 0 mm 5 mps 757 mmHg 81%
    21:00 +28°C° 0 mm 5 mps 758 mmHg 82%
    22:00 +28°C° 0.2 mm 5 mps 758 mmHg 83%
    23:00 +28°C° 0.2 mm 6 mps 758 mmHg 84%

    24 November, Sunday

    Time Temperature Precipitation Wind Pressure Humidity
    00:00 +28°C° 0.2 mm 6 mps 758 mmHg 85%
    01:00 +28°C° 0.2 mm 6 mps 757 mmHg 85%
    02:00 +28°C° 0.2 mm 6 mps 757 mmHg 85%
    03:00 +28°C° 0.2 mm 6 mps 757 mmHg 84%
    04:00 +28°C° 0.1 mm 6 mps 757 mmHg 84%
    05:00 +28°C° 0.1 mm 6 mps 757 mmHg 83%
    06:00 +27°C° 0.1 mm 6 mps 758 mmHg 82%
    07:00 +28°C° 0.1 mm 6 mps 758 mmHg 78%
    08:00 +29°C° 0.1 mm 6 mps 759 mmHg 74%
    09:00 +30°C° 0.1 mm 6 mps 759 mmHg 70%
    10:00 +30°C° 0.1 mm 6 mps 759 mmHg 70%
    11:00 +30°C° 0.1 mm 7 mps 758 mmHg 70%
    12:00 +30°C° 0.1 mm 7 mps 758 mmHg 70%
    13:00 +30°C° 0 mm 6 mps 758 mmHg 70%
    14:00 +30°C° 0 mm 6 mps 757 mmHg 70%
    15:00 +30°C° 0 mm 6 mps 757 mmHg 71%
    16:00 +30°C° 0 mm 5 mps 757 mmHg 73%
    17:00 +29°C° 0 mm 5 mps 757 mmHg 75%
    18:00 +29°C° 0 mm 4 mps 757 mmHg 78%
    19:00 +29°C° 0 mm 4 mps 757 mmHg 79%
    20:00 +29°C° 0 mm 4 mps 758 mmHg 80%
    21:00 +28°C° 0 mm 5 mps 758 mmHg 81%
    22:00 +28°C° 0.1 mm 5 mps 758 mmHg 82%
    23:00 +28°C° 0.1 mm 4 mps 758 mmHg 84%

    25 November, Monday

    Time Temperature Precipitation Wind Pressure Humidity
    00:00 +28°C° 0.1 mm 4 mps 758 mmHg 86%
    01:00 +28°C° 0.1 mm 4 mps 758 mmHg 86%
    02:00 +28°C° 0.1 mm 4 mps 757 mmHg 85%
    03:00 +28°C° 0.1 mm 4 mps 757 mmHg 85%
    04:00 +28°C° 0.1 mm 4 mps 757 mmHg 84%
    05:00 +28°C° 0.1 mm 4 mps 758 mmHg 84%
    06:00 +28°C° 0.1 mm 5 mps 758 mmHg 83%
    07:00 +29°C° 0.1 mm 5 mps 758 mmHg 77%
    08:00 +30°C° 0.1 mm 5 mps 759 mmHg 71%
    09:00 +32°C° 0.1 mm 5 mps 759 mmHg 65%
    10:00 +32°C° 0.1 mm 5 mps 759 mmHg 61%
    11:00 +33°C° 0.1 mm 5 mps 758 mmHg 58%
    12:00 +34°C° 0.1 mm 5 mps 758 mmHg 55%
    13:00 +34°C° 0.1 mm 5 mps 757 mmHg 57%
    14:00 +33°C° 0.1 mm 5 mps 757 mmHg 59%
    15:00 +33°C° 0.1 mm 5 mps 756 mmHg 61%
    16:00 +32°C° 0.1 mm 5 mps 756 mmHg 66%
    17:00 +30°C° 0.1 mm 5 mps 757 mmHg 71%
    18:00 +30°C° 0.1 mm 5 mps 757 mmHg 76%
    19:00 +29°C° 0 mm 5 mps 757 mmHg 76%
    20:00 +29°C° 0 mm 4 mps 758 mmHg 77%
    21:00 +29°C° 0 mm 4 mps 759 mmHg 77%
    22:00 +29°C° 0 mm 4 mps 758 mmHg 78%
    23:00 +28°C° 0 mm 3 mps 758 mmHg 79%

    26 November, Tuesday

    Time Temperature Precipitation Wind Pressure Humidity
    00:00 +28°C° 0 mm 3 mps 758 mmHg 79%
    01:00 +28°C° 0 mm 3 mps 758 mmHg 78%
    02:00 +28°C° 0 mm 3 mps 758 mmHg 78%
    03:00 +28°C° 0 mm 3 mps 757 mmHg 77%
    04:00 +28°C° 0 mm 3 mps 758 mmHg 78%
    05:00 +28°C° 0 mm 3 mps 758 mmHg 79%
    06:00 +27°C° 0 mm 3 mps 758 mmHg 79%
    07:00 +28°C° 0 mm 3 mps 759 mmHg 75%
    08:00 +29°C° 0 mm 3 mps 759 mmHg 71%
    09:00 +30°C° 0 mm 4 mps 759 mmHg 68%
    10:00 +30°C° 0.1 mm 4 mps 759 mmHg 67%
    11:00 +32°C° 0.1 mm 5 mps 758 mmHg 67%
    12:00 +32°C° 0.1 mm 5 mps 758 mmHg 66%
    13:00 +32°C° 0 mm 5 mps 757 mmHg 65%
    14:00 +32°C° 0 mm 5 mps 757 mmHg 64%
    15:00 +32°C° 0 mm 4 mps 757 mmHg 63%
    16:00 +32°C° 0 mm 4 mps 757 mmHg 65%
    17:00 +30°C° 0 mm 4 mps 757 mmHg 67%
    18:00 +30°C° 0 mm 4 mps 757 mmHg 70%
    19:00 +29°C° 0 mm 4 mps 758 mmHg 72%
    20:00 +29°C° 0 mm 4 mps 758 mmHg 74%
    21:00 +29°C° 0 mm 4 mps 759 mmHg 77%
    22:00 +28°C° 0 mm 3 mps 758 mmHg 78%
    23:00 +28°C° 0 mm 3 mps 758 mmHg 79%
    Show more